DIRECTV 10

Last updated on Thu Nov 21 2024 00:02:41 GMT+0000 (Coordinated Universal Time)

1 31862U 07032A 24325.29892012 -.00000102 00000+0 00000+0 0 9993 2 31862 0.0106 88.7614 0000743 134.4945 201.3887 1.00272079 39837
UTC large
Height (km)
Speed (km/s)
/
Latitude / Longitude
Inclination (degrees)
Orbital Period (minutes)
Azimuth
Elevation
Range (km)
Doppler Factor

Next 0 passes for location: London (51.5072 / 0.1276)

Sorry there are no passes over London.